Date String (YYYY-MM-DD hh:mm:ss) UTC,Instrument flags,absolute air pressure of the measurement (hPa),sample flow rate (lpm),inlet stack bypass flow (lpm),air temperature of the measurement (°C),ambient temperature measured by the external sensor (°C),aerosol sample conditioner tube jacket temperature (°C),OPC LED temperature (°C),internal box temperature (°C),relative humidity of the measurement (%),span deviation,mass concentration of particles derived from Lorenz-Mie calculation of OPC scattering (μg/m³),mass concentration of particles derived from Lorenz-Mie calculation of OPC scattering (μg/m³),mass concentration of particles derived from Lorenz-Mie calculation of OPC scattering (μg/m³)
DateTimeUTC,F1_M11,P_M11,Q1_M11,Q2_M11,T1_M11,T2_M11,T3_M11,T4_M11,T5_M11,U1_M11,ZSPAN_M11,X0_M11,X2_M11,X1_M11
2023-06-09 12:00:00,SystemResetWarning,0830.1,5.00,000.00,029.6,028.0,000.0,038.2,031.1,19.8,0000.0,0007.73,0003.42,0002.52
2023-06-09 12:01:00,SystemResetWarning,0830.1,5.00,000.00,029.6,028.0,000.0,038.2,031.1,19.7,0000.0,0007.98,0003.44,0002.51
2023-06-09 12:02:00,SystemResetWarning,0830.1,4.99,000.00,029.6,028.0,000.0,038.2,031.1,19.5,0000.0,0008.00,0003.45,0002.52
2023-06-09 12:03:00,SystemResetWarning,0830.1,5.00,000.00,029.6,028.1,000.0,038.2,031.1,19.3,0000.0,0007.86,0003.41,0002.51
2023-06-09 12:04:00,SystemResetWarning,0830.1,5.00,000.00,029.6,028.1,000.0,038.2,031.1,18.8,0000.0,0007.82,0003.40,0002.52
2023-06-09 12:05:00,SystemResetWarning,0830.1,5.00,000.00,029.6,028.1,000.0,038.2,031.1,18.1,0000.0,0007.76,0003.36,0002.52
2023-06-09 12:06:00,SystemResetWarning,0830.1,5.00,000.00,029.6,028.0,000.0,038.2,031.1,18.5,0000.0,0007.86,0003.35,0002.50
2023-06-09 12:07:00,SystemResetWarning,0830.1,5.00,000.00,029.6,028.0,000.0,038.2,031.1,20.2,0000.0,0007.87,0003.33,0002.49
2023-06-09 12:08:00,SystemResetWarning,0830.1,5.00,000.00,029.6,028.1,000.0,038.2,031.1,19.6,0000.0,0008.08,0003.31,0002.47
2023-06-09 12:09:00,SystemResetWarning,0830.1,5.00,000.00,029.6,028.1,000.0,038.2,031.1,19.5,0000.0,0008.24,0003.32,0002.48
2023-06-09 12:10:00,SystemResetWarning,0830.1,5.00,000.00,029.6,028.1,000.0,038.2,031.1,19.1,0000.0,0008.10,0003.32,0002.47
2023-06-09 12:11:00,SystemResetWarning,0830.1,5.00,000.00,029.6,028.1,000.0,038.2,031.1,18.8,0000.0,0008.06,0003.34,0002.46
2023-06-09 12:12:00,SystemResetWarning,0830.1,5.00,000.00,029.6,028.1,000.0,038.2,031.1,18.9,0000.0,0007.80,0003.32,0002.44
2023-06-09 12:13:00,SystemResetWarning,0830.1,5.00,000.00,029.6,028.1,000.0,038.2,031.2,18.9,0000.0,0007.78,0003.36,0002.44
2023-06-09 12:14:00,SystemResetWarning,0830.1,5.00,000.00,029.7,028.1,000.0,038.2,031.1,19.1,0000.0,0007.76,0003.39,0002.46
2023-06-09 12:15:00,SystemResetWarning,0830.1,5.00,000.00,029.7,028.1,000.0,038.2,031.2,18.5,0000.0,0008.06,0003.42,0002.45
2023-06-09 12:16:00,SystemResetWarning,0830.1,5.00,000.00,029.7,028.1,000.0,038.2,031.2,19.2,0000.0,0008.47,0003.47,0002.46
2023-06-09 12:17:00,SystemResetWarning,0830.1,5.00,000.00,029.7,028.1,000.0,038.2,031.2,19.3,0000.0,0008.69,0003.49,0002.46
2023-06-09 12:18:00,SystemResetWarning,0830.1,4.99,000.00,029.7,028.1,000.0,038.2,031.2,17.9,0000.0,0008.70,0003.47,0002.45
2023-06-09 12:19:00,SystemResetWarning,0830.1,5.00,000.00,029.7,028.1,000.0,038.2,031.2,17.7,0000.0,0008.52,0003.45,0002.46
2023-06-09 12:20:00,SystemResetWarning,0830.1,4.99,000.00,029.7,028.1,000.0,038.2,031.2,17.4,0000.0,0008.31,0003.46,0002.44
2023-06-09 12:21:00,SystemResetWarning,0830.2,5.00,000.00,029.7,028.1,000.0,038.2,031.2,17.1,0000.0,0008.27,0003.45,0002.43
2023-06-09 12:22:00,SystemResetWarning,0830.1,5.00,000.00,029.7,028.1,000.0,038.2,031.2,17.0,0000.0,0008.21,0003.43,0002.43
2023-06-09 12:23:00,SystemResetWarning,0830.2,5.01,000.00,029.7,028.1,000.0,038.2,031.2,16.7,0000.0,0008.19,0003.43,0002.44
2023-06-09 12:24:00,SystemResetWarning,0830.1,5.01,000.00,029.7,028.1,000.0,038.2,031.2,16.4,0000.0,0008.10,0003.39,0002.40
2023-06-09 12:25:00,SystemResetWarning,0830.1,5.00,000.00,029.7,028.1,000.0,038.2,031.2,16.5,0000.0,0008.03,0003.37,0002.37
2023-06-09 12:26:00,SystemResetWarning,0830.1,5.00,000.00,029.7,028.1,000.0,038.3,031.2,16.6,0000.0,0007.69,0003.34,0002.35
2023-06-09 12:27:00,SystemResetWarning,0830.1,5.00,000.00,029.7,028.1,000.0,038.3,031.2,17.1,0000.0,0007.33,0003.32,0002.34
2023-06-09 12:28:00,SystemResetWarning,0830.1,5.00,000.00,029.7,028.1,000.0,038.3,031.2,16.3,0000.0,0006.71,0003.30,0002.31
2023-06-09 12:29:00,SystemResetWarning,0830.1,5.00,000.00,029.7,028.1,000.0,038.3,031.2,15.9,0000.0,0006.35,0003.30,0002.30
2023-06-09 12:30:00,SystemResetWarning,0830.1,5.00,000.00,029.7,028.1,000.0,038.3,031.2,15.6,0000.0,0005.86,0003.28,0002.29
2023-06-09 12:31:00,SystemResetWarning,0830.1,5.00,000.00,029.7,028.1,000.0,038.3,031.2,15.7,0000.0,0005.96,0003.29,0002.30
2023-06-09 12:32:00,SystemResetWarning,0830.1,5.00,000.00,029.7,028.1,000.0,038.3,031.2,15.6,0000.0,0006.10,0003.32,0002.32
2023-06-09 12:33:00,SystemResetWarning,0830.1,5.00,000.00,029.7,028.1,000.0,038.3,031.2,15.6,0000.0,0006.22,0003.34,0002.32
2023-06-09 12:34:00,SystemResetWarning,0830.1,5.00,000.00,029.7,028.1,000.0,038.3,031.2,15.7,0000.0,0006.76,0003.39,0002.33
2023-06-09 12:35:00,SystemResetWarning,0830.1,5.00,000.00,029.7,028.1,000.0,038.3,031.2,16.6,0000.0,0007.37,0003.45,0002.34
2023-06-09 12:36:00,SystemResetWarning,0830.1,5.00,000.00,029.7,028.1,000.0,038.3,031.2,16.7,0000.0,0007.54,0003.51,0002.37
2023-06-09 12:37:00,SystemResetWarning,0830.1,5.00,000.00,029.7,028.1,000.0,038.3,031.2,16.4,0000.0,0007.62,0003.53,0002.40
2023-06-09 12:38:00,SystemResetWarning,0830.1,5.00,000.00,029.7,028.1,000.0,038.3,031.2,16.3,0000.0,0007.59,0003.51,0002.40
2023-06-09 12:39:00,SystemResetWarning,0830.1,4.99,000.00,029.7,028.1,000.0,038.3,031.2,16.2,0000.0,0007.68,0003.51,0002.42
2023-06-09 12:40:00,SystemResetWarning,0830.1,5.00,000.00,029.7,028.1,000.0,038.3,031.2,15.8,0000.0,0007.85,0003.51,0002.43
2023-06-09 12:41:00,SystemResetWarning,0830.1,4.99,000.00,029.7,028.1,000.0,038.3,031.2,16.1,0000.0,0007.89,0003.53,0002.45
2023-06-09 12:42:00,SystemResetWarning,0830.1,5.00,000.00,029.7,028.1,000.0,038.3,031.2,15.6,0000.0,0007.89,0003.55,0002.45
2023-06-09 12:43:00,SystemResetWarning,0830.1,5.01,000.00,029.7,028.1,000.0,038.3,031.2,15.3,0000.0,0007.77,0003.53,0002.45
2023-06-09 12:44:00,SystemResetWarning,0830.1,5.00,000.00,029.8,028.2,000.0,038.3,031.2,15.3,0000.0,0007.75,0003.49,0002.45
2023-06-09 12:45:00,SystemResetWarning,0830.1,5.00,000.00,029.8,028.2,000.0,038.3,031.3,15.5,0000.0,0007.49,0003.43,0002.44
2023-06-09 12:46:00,SystemResetWarning,0830.1,5.00,000.00,029.8,028.2,000.0,038.3,031.3,16.6,0000.0,0007.07,0003.40,0002.46
2023-06-09 12:47:00,SystemResetWarning,0830.1,4.99,000.00,029.8,028.2,000.0,038.3,031.3,16.9,0000.0,0007.04,0003.38,0002.47
2023-06-09 12:48:00,SystemResetWarning,0830.1,4.99,000.00,029.8,028.2,000.0,038.3,031.3,16.6,0000.0,0007.21,0003.41,0002.49
2023-06-09 12:49:00,SystemResetWarning,0830.1,4.99,000.00,029.8,028.2,000.0,038.3,031.3,15.8,0000.0,0007.64,0003.47,0002.49
2023-06-09 12:50:00,SystemResetWarning,0830.1,5.00,000.00,029.8,028.2,000.0,038.3,031.3,15.3,0000.0,0007.76,0003.48,0002.50
2023-06-09 12:51:00,SystemResetWarning,0830.1,5.00,000.00,029.8,028.2,000.0,038.3,031.3,15.4,0000.0,0007.95,0003.49,0002.51
2023-06-09 12:52:00,SystemResetWarning,0830.1,5.00,000.00,029.8,028.2,000.0,038.3,031.3,17.3,0000.0,0008.00,0003.51,0002.50
2023-06-09 12:53:00,SystemResetWarning,0830.0,5.01,000.00,029.8,028.2,000.0,038.3,031.3,16.7,0000.0,0008.07,0003.52,0002.50
2023-06-09 12:54:00,SystemResetWarning,0830.0,5.01,000.00,029.8,028.2,000.0,038.4,031.3,15.4,0000.0,0008.30,0003.52,0002.49
2023-06-09 12:55:00,SystemResetWarning,0830.0,4.99,000.00,029.8,028.2,000.0,038.4,031.3,16.7,0000.0,0008.35,0003.57,0002.51
2023-06-09 12:56:00,SystemResetWarning,0830.1,5.00,000.00,029.8,028.2,000.0,038.4,031.3,16.7,0000.0,0008.35,0003.60,0002.53
2023-06-09 12:57:00,SystemResetWarning,0830.1,5.00,000.00,029.9,028.2,000.0,038.4,031.3,15.0,0000.0,0008.30,0003.59,0002.52
2023-06-09 12:58:00,SystemResetWarning,0830.1,4.99,000.00,029.9,028.2,000.0,038.4,031.3,15.6,0000.0,0008.39,0003.58,0002.53
2023-06-09 12:59:00,SystemResetWarning,0830.0,5.00,000.00,029.9,028.2,000.0,038.4,031.3,16.4,0000.0,0008.38,0003.56,0002.52
